DAE1560 SKBO-SVMI

Flight info

Callsign DAE1560
Flight time 1h 39m
Altitude 35000
Route DANSA4R AKROB DCT KIKAS UP533 PBL ALDAK1
Aircraft R722/M-SDFGRWY/S

Departure

Time 2025-10-09 06:51
Airport El Dorado International Airport (SKBO)

Arrival

Time 2025-10-09 08:30
Airport Maiquetía Simón Bolívar International Airport (SVMI)
Time Latitude Longitude Altitude Speed Heading
2025-10-09 06:41 4.69040 -74.13691 8369 ft 3 kts 37°
2025-10-09 06:41 4.69026 -74.13702 8369 ft 3 kts 35°
2025-10-09 06:42 4.68971 -74.13710 8369 ft 3 kts 332°
2025-10-09 06:42 4.68944 -74.13683 8369 ft 3 kts 304°
2025-10-09 06:43 4.68933 -74.13667 8369 ft 2 kts 307°
2025-10-09 06:43 4.68957 -74.13698 8369 ft 3 kts 307°
2025-10-09 06:44 4.68981 -74.13731 8369 ft 3 kts 307°
2025-10-09 06:44 4.69004 -74.13761 8369 ft 1 kts 307°
2025-10-09 06:45 4.69006 -74.13763 8369 ft 0 kts 307°
2025-10-09 06:47 4.69009 -74.13767 8369 ft 3 kts 307°
2025-10-09 06:47 4.69088 -74.13874 8369 ft 13 kts 295°
2025-10-09 06:48 4.69084 -74.14018 8369 ft 9 kts 219°
2025-10-09 06:48 4.69022 -74.14123 8369 ft 11 kts 261°
2025-10-09 06:49 4.69009 -74.14203 8369 ft 11 kts 262°
2025-10-09 06:50 4.70105 -74.15670 8367 ft 161 kts 307°
2025-10-09 06:50 4.70842 -74.16642 8499 ft 184 kts 308°
2025-10-09 06:50 4.72456 -74.18741 9602 ft 189 kts 307°
2025-10-09 06:51 4.73614 -74.21264 10104 ft 219 kts 280°
2025-10-09 06:51 4.74323 -74.24209 11106 ft 220 kts 286°
2025-10-09 06:52 4.74628 -74.27250 11956 ft 224 kts 257°
2025-10-09 06:52 4.73885 -74.30546 12360 ft 268 kts 257°
2025-10-09 06:53 4.73512 -74.32475 12529 ft 295 kts 258°
2025-10-09 06:53 4.72714 -74.36480 14130 ft 294 kts 258°
2025-10-09 06:54 4.70648 -74.42202 15971 ft 300 kts 227°
2025-10-09 06:54 4.67102 -74.44343 17235 ft 303 kts 193°
2025-10-09 06:55 4.62893 -74.44950 18485 ft 309 kts 184°
2025-10-09 06:55 4.58586 -74.45489 19544 ft 315 kts 187°
2025-10-09 06:56 4.54209 -74.46078 20468 ft 323 kts 186°
2025-10-09 06:56 4.49512 -74.46696 20734 ft 357 kts 187°
2025-10-09 06:57 4.44408 -74.47373 21476 ft 378 kts 187°
2025-10-09 06:57 4.41801 -74.47715 22217 ft 380 kts 187°
2025-10-09 06:58 4.33851 -74.47559 23994 ft 389 kts 160°
2025-10-09 06:58 4.29321 -74.44617 25090 ft 395 kts 133°
2025-10-09 07:00 4.23764 -74.22876 29614 ft 422 kts 99°
2025-10-09 07:02 4.22947 -73.99265 32522 ft 444 kts 62°
2025-10-09 07:04 4.42092 -73.90149 34052 ft 461 kts 12°
2025-10-09 07:06 4.70885 -73.91695 35633 ft 476 kts 350°
2025-10-09 07:08 4.97004 -73.97590 37085 ft 488 kts 350°
2025-10-09 07:10 5.22585 -73.91323 38435 ft 484 kts 44°
2025-10-09 07:12 5.32120 -73.66549 39585 ft 477 kts 76°
2025-10-09 07:14 5.39577 -73.41773 37543 ft 463 kts 54°
2025-10-09 07:16 5.57715 -73.25212 35689 ft 455 kts 43°
2025-10-09 07:18 5.76481 -73.08488 35020 ft 451 kts 43°
2025-10-09 07:20 5.95261 -72.91761 35016 ft 450 kts 43°
2025-10-09 07:22 6.13995 -72.75059 35010 ft 450 kts 43°
2025-10-09 07:24 6.32765 -72.58309 35033 ft 451 kts 43°
2025-10-09 07:26 6.51497 -72.41574 35068 ft 451 kts 43°
2025-10-09 07:28 6.70306 -72.24755 35019 ft 453 kts 43°
2025-10-09 07:30 6.89099 -72.07930 34912 ft 452 kts 43°
2025-10-09 07:32 7.05235 -71.92905 34908 ft 450 kts 51°
2025-10-09 07:34 7.24305 -71.72080 34882 ft 450 kts 49°
2025-10-09 07:36 7.39201 -71.55889 34875 ft 450 kts 49°
2025-10-09 07:38 7.58316 -71.35083 34869 ft 452 kts 49°
2025-10-09 07:40 7.73264 -71.18793 34881 ft 451 kts 49°
2025-10-09 07:42 7.92443 -70.97862 34886 ft 453 kts 49°
2025-10-09 07:44 8.07432 -70.81486 34891 ft 455 kts 49°
2025-10-09 07:46 8.26754 -70.60344 34868 ft 458 kts 49°
2025-10-09 07:48 8.41834 -70.43821 34869 ft 457 kts 49°
2025-10-09 07:50 8.61203 -70.22569 34875 ft 457 kts 49°
2025-10-09 07:52 8.75944 -70.05782 34867 ft 455 kts 50°
2025-10-09 07:54 8.94848 -69.84209 34869 ft 457 kts 49°
2025-10-09 07:56 9.09579 -69.67368 34877 ft 457 kts 50°
2025-10-09 07:58 9.27806 -69.46500 34864 ft 457 kts 50°
2025-10-09 08:00 9.42540 -69.29607 34865 ft 457 kts 50°
2025-10-09 08:02 9.61581 -69.07737 34868 ft 463 kts 49°
2025-10-09 08:04 9.76453 -68.90647 34876 ft 463 kts 50°
2025-10-09 08:06 9.95611 -68.68599 34892 ft 464 kts 50°
2025-10-09 08:08 10.10330 -68.51663 31826 ft 436 kts 50°
2025-10-09 08:10 10.27403 -68.32014 26875 ft 394 kts 50°
2025-10-09 08:12 10.38016 -68.19782 23850 ft 375 kts 50°
2025-10-09 08:12 10.39737 -68.17798 23337 ft 372 kts 50°
2025-10-09 08:13 10.43094 -68.13925 22333 ft 364 kts 50°
2025-10-09 08:13 10.47920 -68.08092 20907 ft 354 kts 62°
2025-10-09 08:14 10.49545 -68.03451 19998 ft 347 kts 78°
2025-10-09 08:14 10.50533 -67.98685 19074 ft 343 kts 77°
2025-10-09 08:15 10.51699 -67.94016 18180 ft 338 kts 78°
2025-10-09 08:15 10.52233 -67.91701 17696 ft 335 kts 78°
2025-10-09 08:16 10.53312 -67.87130 16811 ft 331 kts 78°
2025-10-09 08:16 10.54381 -67.82615 15942 ft 326 kts 78°
2025-10-09 08:17 10.55427 -67.78186 15096 ft 322 kts 78°
2025-10-09 08:17 10.56981 -67.71607 13844 ft 316 kts 78°
2025-10-09 08:18 10.57995 -67.67293 12969 ft 312 kts 79°
2025-10-09 08:18 10.58352 -67.63021 11986 ft 289 kts 92°
2025-10-09 08:19 10.58405 -67.59038 11042 ft 278 kts 88°
2025-10-09 08:19 10.58501 -67.57080 10593 ft 277 kts 89°
2025-10-09 08:20 10.58626 -67.53190 9694 ft 274 kts 89°
2025-10-09 08:20 10.58759 -67.49356 8808 ft 269 kts 89°
2025-10-09 08:21 10.58890 -67.45592 7973 ft 267 kts 89°
2025-10-09 08:21 10.59082 -67.39950 6650 ft 264 kts 89°
2025-10-09 08:22 10.59206 -67.36307 5762 ft 249 kts 89°
2025-10-09 08:22 10.59322 -67.32883 4937 ft 236 kts 89°
2025-10-09 08:23 10.59432 -67.29618 4196 ft 226 kts 89°
2025-10-09 08:23 10.59537 -67.26519 4035 ft 218 kts 89°
2025-10-09 08:24 10.59588 -67.24981 4021 ft 217 kts 89°
2025-10-09 08:24 10.59690 -67.21928 4034 ft 210 kts 89°
2025-10-09 08:25 10.59788 -67.19022 3743 ft 199 kts 88°
2025-10-09 08:25 10.59917 -67.15148 2938 ft 173 kts 88°
2025-10-09 08:26 10.59997 -67.12725 2440 ft 166 kts 88°
2025-10-09 08:26 10.60028 -67.11693 2205 ft 145 kts 88°
2025-10-09 08:27 10.60097 -67.09631 1862 ft 144 kts 88°
2025-10-09 08:27 10.60165 -67.07625 1479 ft 141 kts 88°
2025-10-09 08:28 10.60270 -67.04645 923 ft 141 kts 88°
2025-10-09 08:28 10.60336 -67.02627 552 ft 144 kts 88°
2025-10-09 08:29 10.60424 -66.99884 226 ft 67 kts 88°
2025-10-09 08:30 10.60444 -66.99201 200 ft 27 kts 88°
2025-10-09 08:30 10.60281 -66.99115 188 ft 19 kts 179°
2025-10-09 08:30 10.60155 -66.99102 190 ft 17 kts 166°
2025-10-09 08:31 10.59933 -66.99042 196 ft 12 kts 143°
2025-10-09 08:31 10.59949 -66.98871 190 ft 17 kts 77°
2025-10-09 08:32 10.60022 -66.98588 180 ft 19 kts 74°
2025-10-09 08:32 10.60112 -66.98318 173 ft 19 kts 76°
2025-10-09 08:33 10.60099 -66.98170 167 ft 5 kts 209°
2025-10-09 08:33 10.60088 -66.98177 167 ft 0 kts 214°